Regional Weather Roundup
Issued by NWS Midland/Odessa, TX

Home | Current Version | Previous Version | Text Only | Print | Product List | Glossary On
Versions: 1 2 3 4 5 6 7 8 9 10 11 12 13 14 15 16 17 18 19 20 21 22 23 24 25 26 27 28 29 30 31 32 33 34 35 36 37 38 39 40 41 42 43 44 45 46 47 48 49 50
000
ASUS44 KMAF 010701
RWRMAF
MIDLAND AREA WEATHER ROUNDUP
NATIONAL WEATHER SERVICE MIDLAND TX
200 AM CDT TUE SEP 01 2015

...IN SOUTHWEST TEXAS AND SOUTHEAST NEW MEXICO...

CITY           SKY/WX    TMP DP  RH WIND       PRES   REMARKS
ALPINE         CLEAR     69  52  54 S7        30.17S
ANDREWS        FAIR      74  54  48 S8        30.04F
ARTESIA        PTCLDY    75  48  38 S9        30.04S
BIG SPRING     CLEAR     75  55  49 SE10      30.05S
CARLSBAD       CLEAR     77  47  34 S8        30.01F
DRYDEN           N/A     80  63  55 E5        29.99S
FORT STOCKTON  CLEAR     77  55  46 SE16G23   30.02F
GUAD PASS      CLEAR     73  41  31 NE17      30.19R
HOBBS            N/A     68  55  64 S3        30.07F
MARFA          PTCLDY    57  43  58 NW7       30.15F
MIDLAND AIRPK  CLEAR     79  55  43 S9        30.03S
MIDLAND INTL   CLEAR     75  55  49 S8        30.03S
ODESSA         CLEAR     79  52  38 S12       30.04S
PECOS          CLEAR     79  54  42 SE13      29.98S
PRESIDIO       NOT AVBL
SEMINOLE       CLEAR     68  53  58 S5        30.06S
SNYDER         CLEAR     78  56  48 SE12      30.03R
WINK           CLEAR     76  54  46 SE9       30.00S
$$
...OTHER STATIONS IN TEXAS...

CITY           SKY/WX    TMP DP  RH WIND       PRES   REMARKS
ABILENE        CLEAR     76  60  57 S14       30.02R
AMARILLO       CLEAR     70  53  54 S13       30.06R
AUSTIN         PTCLDY    74  71  91 SE5       30.03F
BROWNSVILLE    CLOUDY    78  76  93 SW5       29.95S
CORPUS CHRISTI MOCLDY    80  74  81 E16       29.98S
DALLAS FTW     CLEAR     80  67  64 S9        30.01R
DEL RIO        CLEAR     78  63  59 E14       30.00R
EL PASO        PTCLDY    86  42  21 CALM      30.02F
HOUSTON INT    CLOUDY    74  72  93 SE3       30.03F
LUBBOCK        PTCLDY    72  55  55 SE10      30.05S
SAN ANGELO     PTCLDY    79  60  52 S15G21    30.01R
SAN ANTONIO    MOCLDY    78  71  79 SE8       30.05S
WACO           CLEAR     78  68  71 S13       30.03R
WICHITA FALLS  NOT AVBL
$$
...OTHER LOCATIONS IN NEW MEXICO...

CITY           SKY/WX    TMP DP  RH WIND       PRES   REMARKS
ALAMAGORDO     PTCLDY    75  50  41 N5        30.06S
ALBUQUERQUE    MOCLDY    73  48  41 CALM      30.18S
CANNON AFB     CLEAR     68  51  54 S1        30.09S
CLOVIS         PTCLDY    68  52  56 SW8       30.10S
HOLLOMAN AFB   MOCLDY    74  54  48 N6        30.05R
ROSWELL        CLEAR     71  49  45 S3        30.04S
RUIDOSO        PTCLDY    64  48  55 MISG      30.29S
SANTA FE       MOCLDY    65  51  60 NE8       30.22S
TRUTH OR CONSE PTCLDY    74  51  44 NW12      30.13S
TUCUMCARI      PTCLDY    78  48  34 SW8       30.05S
$$



USA.gov is the U.S. government's official web portal to all federal, state and local government web resources and services.